Погода в Тутуре

Россия / Иркутская область     54°47′08″N   105°13′46″E
темп.,
°C
ветер,
м/с
пор.,
м/с
влажн.,
%
обл.,
%
осадки,
мм/ч
давл.,
гПа
погр.,
м
18 мая, вт
вт1823:00+2з22586 0.0 100911
02:00−1ссз117226 0.0 101110
05:00−2зюз11785 0.0 101110
08:00+5зюз12515 0.0 1010431
11:00+10з3725100 0.0 10063123
14:00+12з5826100 0.0 10033200
17:00+11з6737100 0.0 10022199
20:00+8з2468100 0.2 1001146
19 мая, ср
ср1923:00+6зюз2277100 0.2 100119
02:00+3сз228622 0.3 100221
05:000з119334 0.0 100410
08:00+6з2365100 0.0 1005401
11:00+10сз47266 0.0 10042380
14:00+12сз4622100 0.0 10022555
17:00+13ссз3422100 0.0 10002404
20:00+9ссв2235100 0.0 100046
20 мая, чт
чт2023:00+6св2240100 0.0 100229
02:00+4св2746100 0.0 1002271
05:00+3св2255100 0.2 100456
08:00+6ссв233847 0.2 1005582
11:00+11с232527 0.0 10041688
14:00+13ссв322378 0.0 10032173
17:00+13ссв3422100 0.0 10022181
20:00+9всв4929100 0.0 1004685
21 мая, пт
пт2123:00+5св2441100 0.0 100576
02:00+4ссв2355100 0.0 100480
05:00+3ссв1162100 0.2 100317
08:00+2св1284100 1.0 1004294
11:00+5св2564100 0.1 1003794
14:00+3св3792100 3.2 1004552
17:00+3сз1296100 4.5 1006312
20:00+3зсз1298100 6.4 1007440
22 мая, сб
сб2223:00+2з1199100 2.2 1008172
02:00+2зюз1199100 2.9 100953
05:00+1з2296100 0.1 101041
08:00+5сз31068100 0.1 10101153
11:00+10ссз61033100 0.0 10102454
14:00+12ссз7928100 0.0 10093142
17:00+10ссз594996 0.4 10101788
20:00+9сз375013 0.4 1011440